Tracking 19575 objects as of 18-Feb-2019
HD Live streaming from Space Station
objects crossing your sky now

MICROSAT-R

Track MICROSAT-R now!
10-day predictions


NORAD ID: 43947
Int'l Code: 2019-006A
Perigee: 245.4 km
Apogee: 310.7 km
Inclination: 96.6 °
Period: 89.9 minutes
Semi major axis: 6649 km
RCS: Unknown
Launch date: January 24, 2019
Source: India (IND)
Launch site: SRIHARIKOTA (SRI)
aabbcc
Your satellite tracking list
Your tracking list is empty




NASA's NSSDC Master Catalog

Two Line Element Set (TLE):
1 43947U 19006A   19049.37620994  .00194594  17576-4  31027-3 0  9994
2 43947  96.6142 323.1002 0049168 275.0755 184.5094 16.01267691  3932
Source of the keplerian elements: AFSPC